Hourly Weather Plymouth

Today, 26 January, Tuesday

Time Temperature Precipitation Wind Pressure Humidity
00:00 +1°C° 0 mm 4 mps 761 mmHg 80%
01:00 +1°C° 0 mm 5 mps 761 mmHg 81%
02:00 +2°C° 0 mm 5 mps 761 mmHg 82%
03:00 +2°C° 0 mm 5 mps 761 mmHg 83%
04:00 +3°C° 0.1 mm 6 mps 760 mmHg 85%
05:00 +3°C° 0.1 mm 6 mps 760 mmHg 86%
06:00 +3°C° 0.1 mm 7 mps 760 mmHg 87%
07:00 +3°C° 0.8 mm 7 mps 759 mmHg 90%
08:00 +2°C° 0.8 mm 8 mps 759 mmHg 92%
09:00 +4°C° 0.8 mm 8 mps 759 mmHg 95%
10:00 +3°C° 1.4 mm 9 mps 758 mmHg 95%
11:00 +5°C° 1.4 mm 9 mps 758 mmHg 95%
12:00 +5°C° 1.4 mm 10 mps 758 mmHg 96%
13:00 +6°C° 0.8 mm 9 mps 757 mmHg 96%
14:00 +7°C° 0.8 mm 8 mps 756 mmHg 97%
15:00 +8°C° 0.8 mm 7 mps 756 mmHg 98%
16:00 +8°C° 0.1 mm 6 mps 756 mmHg 98%
17:00 +9°C° 0.1 mm 5 mps 756 mmHg 98%
18:00 +10°C° 0.1 mm 4 mps 756 mmHg 98%
19:00 +10°C° 0 mm 4 mps 757 mmHg 97%
20:00 +8°C° 0 mm 4 mps 757 mmHg 97%
21:00 +8°C° 0 mm 4 mps 757 mmHg 97%
22:00 +9°C° 0 mm 3 mps 758 mmHg 97%
23:00 +8°C° 0 mm 3 mps 758 mmHg 97%

Tomorrow, 27 January, Wednesday

Time Temperature Precipitation Wind Pressure Humidity
00:00 +8°C° 0 mm 2 mps 758 mmHg 97%
01:00 +8°C° 0 mm 3 mps 758 mmHg 97%
02:00 +8°C° 0 mm 3 mps 758 mmHg 97%
03:00 +9°C° 0 mm 3 mps 758 mmHg 97%
04:00 +9°C° 0 mm 3 mps 758 mmHg 97%
05:00 +8°C° 0 mm 4 mps 758 mmHg 97%
06:00 +8°C° 0 mm 4 mps 758 mmHg 97%
07:00 +8°C° 0 mm 4 mps 758 mmHg 97%
08:00 +9°C° 0 mm 3 mps 759 mmHg 97%
09:00 +9°C° 0 mm 3 mps 759 mmHg 97%
10:00 +10°C° 0 mm 3 mps 759 mmHg 95%
11:00 +10°C° 0 mm 3 mps 759 mmHg 92%
12:00 +11°C° 0 mm 4 mps 759 mmHg 90%
13:00 +11°C° 0 mm 3 mps 759 mmHg 92%
14:00 +10°C° 0 mm 3 mps 758 mmHg 93%
15:00 +10°C° 0 mm 3 mps 758 mmHg 95%
16:00 +10°C° 0.2 mm 3 mps 758 mmHg 96%
17:00 +10°C° 0.2 mm 3 mps 757 mmHg 97%
18:00 +10°C° 0.2 mm 4 mps 757 mmHg 98%
19:00 +10°C° 0 mm 5 mps 757 mmHg 98%
20:00 +10°C° 0 mm 5 mps 756 mmHg 98%
21:00 +10°C° 0 mm 6 mps 756 mmHg 98%
22:00 +10°C° 0.1 mm 7 mps 755 mmHg 98%
23:00 +10°C° 0.1 mm 8 mps 755 mmHg 97%

Day after tomorrow, 28 January, Thursday

Time Temperature Precipitation Wind Pressure Humidity
00:00 +10°C° 0.1 mm 9 mps 754 mmHg 97%
01:00 +10°C° 1.3 mm 9 mps 754 mmHg 97%
02:00 +11°C° 1.3 mm 9 mps 753 mmHg 96%
03:00 +11°C° 1.3 mm 10 mps 753 mmHg 95%
04:00 +11°C° 0.1 mm 10 mps 753 mmHg 95%
05:00 +11°C° 0.1 mm 10 mps 753 mmHg 95%
06:00 +11°C° 0.1 mm 10 mps 752 mmHg 94%
07:00 +11°C° 0 mm 9 mps 752 mmHg 93%
08:00 +11°C° 0 mm 9 mps 753 mmHg 91%
09:00 +10°C° 0 mm 8 mps 753 mmHg 90%
10:00 +11°C° 0 mm 8 mps 753 mmHg 88%
11:00 +11°C° 0 mm 8 mps 753 mmHg 86%
12:00 +12°C° 0 mm 8 mps 753 mmHg 84%
13:00 +11°C° 0.1 mm 8 mps 753 mmHg 85%
14:00 +11°C° 0.1 mm 8 mps 752 mmHg 86%
15:00 +11°C° 0.1 mm 8 mps 751 mmHg 88%
16:00 +11°C° 0.9 mm 9 mps 751 mmHg 89%
17:00 +10°C° 0.9 mm 9 mps 751 mmHg 91%
18:00 +9°C° 0.9 mm 10 mps 751 mmHg 93%
19:00 +8°C° 0 mm 9 mps 752 mmHg 92%
20:00 +7°C° 0 mm 8 mps 752 mmHg 91%
21:00 +6°C° 0 mm 8 mps 753 mmHg 91%
22:00 +7°C° 0 mm 8 mps 753 mmHg 92%
23:00 +7°C° 0 mm 8 mps 754 mmHg 93%

29 January, Friday

Time Temperature Precipitation Wind Pressure Humidity
00:00 +7°C° 0 mm 8 mps 754 mmHg 93%
01:00 +7°C° 0 mm 8 mps 754 mmHg 93%
02:00 +8°C° 0 mm 7 mps 754 mmHg 93%
03:00 +8°C° 0 mm 7 mps 754 mmHg 93%
04:00 +8°C° 0 mm 7 mps 754 mmHg 94%
05:00 +8°C° 0 mm 7 mps 754 mmHg 94%
06:00 +6°C° 0 mm 7 mps 754 mmHg 95%
07:00 +7°C° 0 mm 6 mps 754 mmHg 94%
08:00 +7°C° 0 mm 6 mps 754 mmHg 94%
09:00 +7°C° 0 mm 6 mps 754 mmHg 94%
10:00 +8°C° 0 mm 6 mps 755 mmHg 89%
11:00 +9°C° 0 mm 6 mps 755 mmHg 83%
12:00 +9°C° 0 mm 6 mps 756 mmHg 78%
13:00 +9°C° 0 mm 6 mps 756 mmHg 78%
14:00 +9°C° 0 mm 5 mps 756 mmHg 79%
15:00 +9°C° 0 mm 5 mps 756 mmHg 79%
16:00 +8°C° 0 mm 4 mps 756 mmHg 84%
17:00 +8°C° 0 mm 3 mps 755 mmHg 89%
18:00 +7°C° 0 mm 2 mps 755 mmHg 94%
19:00 +8°C° 0 mm 1 mps 755 mmHg 93%
20:00 +7°C° 0 mm 1 mps 755 mmHg 93%
21:00 +7°C° 0 mm 1 mps 755 mmHg 92%
22:00 +6°C° 0 mm 2 mps 754 mmHg 93%
23:00 +6°C° 0 mm 2 mps 754 mmHg 94%

30 January, Saturday

Time Temperature Precipitation Wind Pressure Humidity
00:00 +5°C° 0 mm 3 mps 753 mmHg 95%
01:00 +5°C° 0 mm 4 mps 753 mmHg 96%
02:00 +6°C° 0 mm 4 mps 752 mmHg 96%
03:00 +6°C° 0 mm 5 mps 751 mmHg 97%
04:00 +6°C° 0 mm 5 mps 751 mmHg 96%
05:00 +7°C° 0 mm 6 mps 751 mmHg 96%
06:00 +7°C° 0 mm 6 mps 750 mmHg 96%
07:00 +6°C° 0.1 mm 7 mps 750 mmHg 95%
08:00 +6°C° 0.1 mm 7 mps 750 mmHg 93%
09:00 +6°C° 0.1 mm 8 mps 751 mmHg 92%
10:00 +6°C° 1.4 mm 8 mps 751 mmHg 93%
11:00 +6°C° 1.4 mm 9 mps 751 mmHg 93%
12:00 +6°C° 1.4 mm 9 mps 751 mmHg 94%
13:00 +6°C° 0.9 mm 9 mps 751 mmHg 94%
14:00 +6°C° 0.9 mm 9 mps 751 mmHg 94%
15:00 +6°C° 0.9 mm 8 mps 750 mmHg 94%
16:00 +6°C° 0.2 mm 8 mps 750 mmHg 94%
17:00 +6°C° 0.2 mm 7 mps 751 mmHg 94%
18:00 +6°C° 0.2 mm 7 mps 751 mmHg 94%
19:00 +7°C° 0 mm 6 mps 750 mmHg 95%
20:00 +7°C° 0 mm 5 mps 750 mmHg 95%
21:00 +7°C° 0 mm 4 mps 750 mmHg 95%
22:00 +7°C° 0 mm 4 mps 750 mmHg 96%
23:00 +7°C° 0 mm 4 mps 749 mmHg 97%

31 January, Sunday

Time Temperature Precipitation Wind Pressure Humidity
00:00 +8°C° 0 mm 3 mps 749 mmHg 98%
01:00 +7°C° 1 mm 5 mps 747 mmHg 97%
02:00 +6°C° 1 mm 7 mps 746 mmHg 96%
03:00 +6°C° 1 mm 9 mps 745 mmHg 95%
04:00 +7°C° 1.7 mm 10 mps 743 mmHg 95%
05:00 +8°C° 1.7 mm 10 mps 741 mmHg 95%
06:00 +9°C° 1.7 mm 11 mps 740 mmHg 94%
07:00 +9°C° 0.7 mm 10 mps 739 mmHg 94%
08:00 +9°C° 0.7 mm 10 mps 739 mmHg 93%
09:00 +9°C° 0.7 mm 10 mps 738 mmHg 92%
10:00 +8°C° 0.3 mm 10 mps 737 mmHg 92%
11:00 +8°C° 0.3 mm 10 mps 736 mmHg 93%
12:00 +8°C° 0.3 mm 10 mps 735 mmHg 94%
13:00 +8°C° 0.7 mm 10 mps 735 mmHg 94%
14:00 +9°C° 0.7 mm 10 mps 735 mmHg 94%
15:00 +10°C° 0.7 mm 9 mps 735 mmHg 94%
16:00 +9°C° 0 mm 10 mps 737 mmHg 92%
17:00 +8°C° 0 mm 11 mps 738 mmHg 91%
18:00 +8°C° 0 mm 11 mps 740 mmHg 89%
19:00 +8°C° 0 mm 12 mps 741 mmHg 85%
20:00 +8°C° 0 mm 12 mps 742 mmHg 82%
21:00 +8°C° 0 mm 13 mps 744 mmHg 78%
22:00 +8°C° 0 mm 12 mps 745 mmHg 82%
23:00 +7°C° 0 mm 12 mps 746 mmHg 86%
Show more